[[{"header":{"parameterUnit":"m.s-1","parameterCategory":1,"la1":30.2991,"la2":30.254,"lo1":-89.0895,"lo2":-89.0444,"dy":0.0017,"dx":0.0017,"nx":28,"ny":28,"refTime":"2023-08-01T21:00:00:Z","depth":0,"parameterNumber":2,"parameterNumberName":"U-component_of_WINDS"},"data":[0,0,0,0,0,0,0,0,0,0,0,0,0,0,0,0,0,0,0,0,0,0,0,0,0,0,0,0,0,0,0,0,0,0,0,0,0,0,0,0,0,0,0,0,0,0,0,0,0,0,0,0,0,0,0,0,0,0,1.446,1.4461,0,1.4525,1.4526,1.4527,1.4516,1.4515,1.4514,1.4513,1.4581,1.4584,1.4587,0,0,0,0,0,0,0,0,0,0,0,0,0,1.4326,1.4329,1.446,1.4461,1.4462,1.4525,1.4526,1.4527,1.4517,1.4515,1.4514,1.4513,1.458,1.4584,1.4587,0,0,0,0,0,0,0,0,0,0,0,0,0,1.4387,1.433,1.446,1.4464,1.4465,1.4525,1.4526,1.4527,1.4517,1.4515,1.4514,1.4512,1.4579,1.4583,1.4588,1.4648,0,0,1.4601,1.4603,0,0,0,0,0,0,0,0,1.4384,1.4392,1.4463,1.4464,1.4465,1.4511,1.4504,1.4568,1.4517,1.4497,1.4513,1.4511,1.4559,1.4565,1.4581,1.4651,1.4654,1.4601,1.4604,1.4606,1.4607,0,0,0,0,0,0,0,1.438,1.4389,1.4486,1.4464,1.4465,1.4463,1.447,1.4516,1.4537,1.4499,1.4498,1.4506,1.456,1.4577,1.4583,1.4655,1.4601,1.4605,1.4608,1.4609,1.4776,1.4778,0,0,0,0,0,0,1.4374,1.4386,1.4484,1.4488,1.442,1.4467,1.4474,1.4498,1.4537,1.4541,1.4508,1.4505,1.4571,1.4578,1.4585,1.4657,1.4606,1.461,1.4612,1.4774,1.4776,1.4778,0,0,0,0,0,0,1.4371,1.4383,1.4481,1.4437,1.4449,1.4471,1.4498,1.45,1.4518,1.4543,1.4547,1.4521,1.457,1.4579,1.4632,1.4659,1.4612,1.4616,1.4772,1.4775,1.4777,1.4802,0,0,0,0,0,0,1.4368,1.4382,1.4405,1.4437,1.4452,1.4527,1.4499,1.4503,1.4525,1.4523,1.4557,1.4561,1.4569,1.4626,1.4636,1.4664,1.4619,1.477,1.4773,1.4776,1.4798,1.4805,1.481,0,0,0,0,0,1.4363,1.441,1.4407,1.4418,1.4481,1.4529,1.4537,1.4544,1.4527,1.455,1.4566,1.456,1.4655,1.4631,1.4643,1.4673,1.4768,1.4772,1.4776,1.4796,1.4804,1.481,0,0,0,0,0,0,1.4382,1.4415,1.4411,1.447,1.4496,1.4527,1.4557,1.4553,1.4585,1.4582,1.4591,1.4598,1.4652,1.4668,1.4641,1.4732,1.4709,1.4716,1.472,1.4727,1.4733,1.4728,1.4622,0,0,0,0,0,1.4393,1.4428,1.4455,1.4505,1.4518,1.4535,1.4556,1.456,1.4588,1.4599,1.4619,1.4647,1.4682,1.4706,1.474,1.4801,1.4808,1.4827,1.4833,1.4838,1.4843,1.4875,1.4883,1.4792,1.4792,1.4792,0,0,1.4416,1.4438,1.446,1.4509,1.453,1.4567,1.4545,1.4585,1.4612,1.4605,1.4656,1.4671,1.4703,1.4759,1.4785,1.4774,1.487,1.4843,1.4847,1.485,1.488,1.4889,1.4896,1.4795,1.4794,1.4794,0,0,1.4476,1.4497,1.454,1.4561,1.4593,1.4603,1.4613,1.4644,1.4654,1.4705,1.47,1.4732,1.4794,1.4816,1.4836,1.4903,1.4897,1.4914,1.4945,1.4975,1.4983,1.4989,1.5012,1.502,1.4919,1.4919,1.4919,0,1.4501,1.4556,1.4563,1.4603,1.4624,1.4619,1.4662,1.4682,1.4723,1.4738,1.4725,1.4801,1.4822,1.4883,1.4899,1.4915,1.4927,1.491,1.4981,1.4987,1.4993,1.5015,1.5024,1.4921,1.4921,1.4921,1.4921,0,1.4584,1.4622,1.4653,1.4692,1.4716,1.4758,1.4771,1.4795,1.4796,1.4808,1.4859,1.4883,1.4922,1.4937,1.4939,1.4998,1.499,1.4979,1.4955,1.5004,1.5024,1.5033,1.4923,1.4923,1.4922,1.4922,0,0,1.4659,1.47,1.4711,1.4728,1.4762,1.4791,1.4832,1.4869,1.4889,1.4917,1.4951,1.5003,1.4992,1.5014,1.5019,1.5046,1.5095,1.5031,1.5032,1.5041,1.516,1.5167,1.5177,1.5092,1.5094,1.5095,1.5157,0,1.4722,1.4793,1.48,1.4863,1.4898,1.4893,1.4928,1.4952,1.4964,1.4995,1.5009,1.5045,1.5029,1.5042,1.5068,1.5084,1.5119,1.508,1.5123,1.5125,1.5115,1.5188,1.5196,1.5253,1.5165,1.5167,1.5168,0,1.4805,1.4834,1.4901,1.4928,1.4943,1.4975,1.5008,1.5038,1.5065,1.5072,1.5096,1.5096,1.5137,1.5113,1.5169,1.5142,1.516,1.5171,1.5173,1.5177,1.5149,1.5192,1.5271,1.528,1.5181,1.518,1.5179,0,1.485,1.4907,1.4954,1.4969,1.5003,1.5025,1.504,1.5065,1.5086,1.5116,1.513,1.5164,1.5182,1.5209,1.5218,1.52,1.5274,1.5251,1.528,1.528,1.5296,1.5294,1.5378,1.5309,1.5309,1.5309,1.5309,0,1.4919,1.496,1.4975,1.5004,1.5049,1.5056,1.5101,1.5115,1.5137,1.5169,1.5167,1.5196,1.5207,1.5238,1.5246,1.5291,1.53,1.5306,1.5307,1.5306,1.5305,1.5317,1.5313,1.5311,1.5311,1.531,1.531,0,1.4978,1.499,1.5041,1.5068,1.5075,1.5108,1.5131,1.5158,1.5169,1.5209,1.5218,1.5236,1.5272,1.5284,1.5329,1.5333,1.5386,1.5384,1.5376,1.5376,1.5405,1.5401,1.5498,1.5511,1.5435,1.5436,1.5436,0,1.5021,1.5052,1.5082,1.5102,1.5118,1.5151,1.5172,1.518,1.5202,1.5235,1.5258,1.5294,1.5323,1.5381,1.5398,1.5431,1.543,1.5462,1.5435,1.5432,1.5429,1.5427,1.5429,1.5466,1.5467,1.5468,1.5468,0,1.5095,1.5099,1.5129,1.5162,1.5187,1.5213,1.5238,1.5254,1.5266,1.5291,1.5327,1.535,1.5394,1.5429,1.5463,1.5479,1.5475,1.5477,1.5485,1.5483,1.5477,1.5479,1.5388,1.5474,1.5474,1.5473,1.5473,1.5473,1.5147,1.5173,1.5198,1.5232,1.5251,1.5274,1.53,1.5314,1.5345,1.5381,1.5384,1.5423,1.5448,1.5493,1.551,1.5541,1.5532,1.5545,1.5548,1.555,1.5552,1.5472,1.5547,1.5547,1.5547,1.5547,1.5547,0,1.5219,1.5235,1.5265,1.53,1.5326,1.532,1.5347,1.5369,1.5403,1.5427,1.5455,1.5496,1.553,1.5549,1.5582,1.5603,1.5602,1.5612,1.561,1.5613,1.5559,1.5547,1.5612,1.5612,1.5612,1.5612,1.5612,1.5612,1.526,1.5305,1.5311,1.5365,1.538,1.5418,1.5433,1.5454,1.5473,1.5519,1.5546,1.5558,1.558,1.5615,1.5645,1.565,1.5662,1.5672,1.5676,1.5624,1.5617,1.5611,1.56,1.5675,1.5675,1.5728,1.5728,1.5728]},{"header":{"parameterUnit":"m.s-1","parameterCategory":1,"la1":30.2991,"la2":30.254,"lo1":-89.0895,"lo2":-89.0444,"dy":0.0017,"dx":0.0017,"nx":28,"ny":28,"refTime":"2023-08-01T21:00:00:Z","depth":0,"parameterNumber":3,"parameterNumberName":"V-component_of_WINDS"},"data":[0,0,0,0,0,0,0,0,0,0,0,0,0,0,0,0,0,0,0,0,0,0,0,0,0,0,0,0,0,0,0,0,0,0,0,0,0,0,0,0,0,0,0,0,0,0,0,0,0,0,0,0,0,0,0,0,0,0,3.3237,3.3236,0,3.3161,3.316,3.3159,3.3065,3.3063,3.3062,3.306,3.298,3.2979,3.2978,0,0,0,0,0,0,0,0,0,0,0,0,0,3.3299,3.3298,3.3237,3.3236,3.3235,3.3161,3.316,3.3159,3.3065,3.3063,3.3061,3.306,3.298,3.2979,3.2978,0,0,0,0,0,0,0,0,0,0,0,0,0,3.3252,3.3298,3.3237,3.3179,3.3173,3.3161,3.316,3.3159,3.3065,3.3063,3.3061,3.3059,3.298,3.2979,3.2978,3.3015,0,0,3.2974,3.2974,0,0,0,0,0,0,0,0,3.3255,3.325,3.3189,3.3183,3.3177,3.312,3.3152,3.311,3.3066,3.3106,3.306,3.3058,3.3028,3.3023,3.3013,3.3011,3.3008,3.2974,3.2974,3.2973,3.2973,0,0,0,0,0,0,0,3.3258,3.3253,3.3207,3.3188,3.3181,3.3156,3.3147,3.3144,3.308,3.3103,3.3096,3.3088,3.3024,3.3015,3.3011,3.3007,3.2974,3.2973,3.2973,3.2972,3.3031,3.3033,0,0,0,0,0,0,3.3271,3.3256,3.3209,3.3204,3.3211,3.3157,3.3147,3.314,3.308,3.3069,3.309,3.3084,3.3018,3.3012,3.3007,3.3046,3.2973,3.2972,3.2971,3.3028,3.3031,3.3034,0,0,0,0,0,0,3.3272,3.3267,3.3212,3.3228,3.3219,3.3159,3.3152,3.314,3.313,3.3071,3.3059,3.3092,3.3016,3.3009,3.3014,3.3042,3.2971,3.297,3.3026,3.3029,3.3032,3.3125,0,0,0,0,0,0,3.3274,3.3268,3.3283,3.3229,3.3219,3.3221,3.3154,3.314,3.3129,3.312,3.3069,3.3059,3.3013,3.3016,3.3013,3.3039,3.2969,3.3023,3.3027,3.3031,3.3119,3.3131,3.3141,0,0,0,0,0,3.3277,3.3311,3.3284,3.3279,3.3236,3.3223,3.3217,3.3165,3.3132,3.3145,3.3107,3.306,3.304,3.3018,3.3013,3.3039,3.3021,3.3026,3.3031,3.3114,3.3129,3.3141,0,0,0,0,0,0,3.3368,3.3303,3.3272,3.329,3.3263,3.3207,3.3222,3.3182,3.3163,3.3155,3.3091,3.308,3.3093,3.3066,3.3043,3.3072,3.3024,3.3028,3.3088,3.3102,3.3113,3.3118,3.2969,0,0,0,0,0,3.3391,3.3387,3.333,3.3351,3.334,3.3284,3.3276,3.3239,3.3207,3.3195,3.3157,3.3127,3.3114,3.3107,3.3091,3.3115,3.3102,3.3131,3.3142,3.3152,3.3156,3.3166,3.3178,3.305,3.305,3.305,0,0,3.3437,3.3401,3.3402,3.3369,3.3343,3.334,3.3274,3.3273,3.327,3.3194,3.3196,3.3168,3.3131,3.3145,3.315,3.3124,3.3188,3.3158,3.3166,3.3165,3.3172,3.3184,3.3195,3.3054,3.3053,3.3052,0,0,3.3518,3.3492,3.3506,3.3482,3.3445,3.3407,3.3411,3.3361,3.3339,3.3341,3.3284,3.3279,3.3257,3.3233,3.3218,3.3291,3.3247,3.3288,3.3346,3.3356,3.3366,3.3374,3.3399,3.3409,3.3293,3.3293,3.3293,0,3.358,3.3573,3.3519,3.3521,3.3508,3.3441,3.3454,3.3433,3.3393,3.3385,3.3357,3.3329,3.3299,3.3306,3.3324,3.3315,3.3316,3.3293,3.3369,3.3377,3.3384,3.3407,3.3417,3.3298,3.3297,3.3297,3.3296,0,3.365,3.3646,3.3663,3.3626,3.3614,3.3623,3.3569,3.3564,3.3527,3.3493,3.3495,3.3457,3.3432,3.3432,3.3396,3.3434,3.3419,3.3381,3.3331,3.3402,3.3423,3.3431,3.3305,3.3303,3.3302,3.3301,0,0,3.3786,3.372,3.3726,3.3708,3.3662,3.3658,3.3663,3.364,3.3637,3.3611,3.3613,3.3597,3.3561,3.3544,3.3505,3.3514,3.3574,3.3475,3.3473,3.3494,3.3612,3.364,3.3651,3.3545,3.3546,3.3548,3.3614,0,3.3858,3.3864,3.3815,3.3833,3.3828,3.3765,3.3769,3.3741,3.3709,3.3699,3.3663,3.3653,3.3608,3.3597,3.3603,3.3565,3.3596,3.356,3.3544,3.3545,3.3555,3.3662,3.3691,3.3756,3.3622,3.3624,3.3625,0,3.3942,3.3922,3.3941,3.3894,3.389,3.3895,3.3869,3.3862,3.3828,3.3804,3.3786,3.3741,3.3742,3.3696,3.3695,3.3671,3.3662,3.3642,3.3643,3.3639,3.3588,3.3659,3.3776,3.3785,3.3637,3.3636,3.3635,0,3.4038,3.4016,3.4024,3.4011,3.3956,3.3961,3.3939,3.3903,3.3892,3.387,3.3862,3.384,3.3828,3.3811,3.3762,3.3733,3.3766,3.3716,3.3745,3.3746,3.3754,3.3754,3.3869,3.375,3.375,3.375,3.375,0,3.4123,3.4136,3.4066,3.4071,3.4084,3.4027,3.4041,3.4012,3.3981,3.3978,3.3922,3.3921,3.3856,3.3846,3.3808,3.3812,3.3807,3.3787,3.3776,3.3791,3.3794,3.3783,3.3777,3.3753,3.3752,3.3752,3.3751,0,3.4231,3.4185,3.4189,3.4138,3.4126,3.4137,3.4093,3.4094,3.4059,3.4056,3.4052,3.3997,3.3983,3.3933,3.3906,3.388,3.3896,3.3876,3.3908,3.3901,3.3932,3.393,3.4044,3.4056,3.3931,3.3933,3.3934,0,3.4288,3.4297,3.4247,3.4242,3.4222,3.4214,3.4203,3.4148,3.4139,3.4101,3.4107,3.4089,3.4072,3.4053,3.4009,3.3988,3.3967,3.4009,3.3963,3.3978,3.3966,3.3966,3.3966,3.4018,3.402,3.4021,3.4022,0,3.4393,3.4369,3.4356,3.4336,3.4324,3.4305,3.4282,3.4281,3.4219,3.4212,3.4198,3.4184,3.4158,3.414,3.4112,3.4087,3.4044,3.4037,3.4042,3.4057,3.4075,3.4064,3.3933,3.4034,3.4033,3.4032,3.4031,3.4031,3.4475,3.448,3.4446,3.4433,3.4411,3.4391,3.439,3.4356,3.4343,3.4318,3.4286,3.4276,3.4241,3.42,3.4179,3.4169,3.4145,3.4153,3.4155,3.4158,3.4165,3.4078,3.4164,3.4163,3.4163,3.4163,3.4162,0,3.4576,3.4551,3.4541,3.4511,3.4501,3.4463,3.4436,3.4429,3.4421,3.4394,3.4378,3.4362,3.4344,3.43,3.4278,3.4279,3.4258,3.4275,3.4273,3.4268,3.4188,3.4185,3.4292,3.4292,3.4292,3.4292,3.4292,3.4292,3.4627,3.4633,3.4606,3.46,3.4575,3.4565,3.4553,3.4534,3.4512,3.4496,3.4482,3.4454,3.4419,3.4394,3.4376,3.4364,3.4358,3.4381,3.4361,3.4286,3.4274,3.4262,3.4259,3.438,3.438,3.4442,3.4443,3.4443]}]]